Sadsburyville, PA

9:46 PM EST on February 13, 2016 (GMT -0500)
Chester County Carlson

Weather History for KMQS - November, 2012

Change the Weather History Date:

Saturday, November 24, 2012

  Actual Average (WUND) Record (WUND)
Temperature  
Mean Temperature 38 °F -  
Max Temperature 44 °F - - (-1)
Min Temperature 32 °F - - (-1)
Degree Days  
Heating Degree Days 27    
Moisture  
Dew Point 22 °F    
Average Humidity 55    
Maximum Humidity 65    
Minimum Humidity 49    
Precipitation  
Precipitation 0.00 in - - ()
Sea Level Pressure  
Sea Level Pressure 29.86 in    
Wind  
Wind Speed 19 mph (WNW)    
Max Wind Speed 25 mph    
Max Gust Speed 36 mph    
Visibility 10 miles    
Events      
Averages and records for this station are not official NWS values.
T = Trace of Precipitation, MM = Missing Value Source: NWS Daily Summary

Daily Weather History Graph

Daily Weather History Graph

Search for Another Location

Airport or City:

Trip Planner

Search our weather history database for the weather conditions in past years. The results will help you decide how hot, cold, wet, or windy it might be!

Date:

Astronomy

Nov. 24, 2012 Rise Set
Actual Time 6:59 AM EST 4:41 PM EST
Civil Twilight 6:29 AM EST 5:10 PM EST
Nautical Twilight 5:56 AM EST 5:44 PM EST
Astronomical Twilight 5:23 AM EST 6:16 PM EST
Moon 2:24 PM EST (11/24) 3:13 AM EST (11/24)
Length of Visible Light 10h 41m
Length of Day
9h 41m
Waxing Gibbous, 87% of the Moon is Illuminated
Nov 24
Waxing Gibbous
Nov 28
Full
Dec 6
Last Quarter
Dec 13
New
Dec 20
First Quarter

Hourly Weather History & Observations

Time (EST) Temp. Windchill Dew Point Humidity Pressure Visibility Wind Dir Wind Speed Gust Speed Precip Events Conditions
12:15 AM 44.6 °F 35.7 °F 28.4 °F 53% 29.78 in 10.0 mi West 24.2 mph 35.7 mph N/A   Clear
12:55 AM 41.0 °F 31.9 °F 26.6 °F 57% 29.79 in 10.0 mi WNW 19.6 mph 25.3 mph N/A   Clear
1:15 AM 41.0 °F 31.4 °F 28.4 °F 61% 29.80 in 10.0 mi NW 21.9 mph 28.8 mph N/A   Mostly Cloudy
1:35 AM 39.2 °F 29.6 °F 26.6 °F 61% 29.80 in 10.0 mi NW 19.6 mph 33.4 mph N/A   Overcast
1:55 AM 39.2 °F 29.8 °F 23.0 °F 52% 29.81 in 10.0 mi NW 18.4 mph 29.9 mph N/A   Mostly Cloudy
2:15 AM 39.2 °F 29.0 °F 23.0 °F 52% 29.82 in 10.0 mi WNW 21.9 mph 31.1 mph N/A   Scattered Clouds
2:35 AM 37.4 °F 28.5 °F 23.0 °F 56% 29.82 in 10.0 mi NW 15.0 mph - N/A   Clear
3:15 AM 35.6 °F 26.2 °F 23.0 °F 60% 29.83 in 10.0 mi WNW 15.0 mph 26.5 mph N/A   Clear
3:35 AM 37.4 °F 28.5 °F 23.0 °F 56% 29.83 in 10.0 mi NW 15.0 mph 23.0 mph N/A   Mostly Cloudy
3:55 AM 35.6 °F 25.5 °F 23.0 °F 60% 29.83 in 10.0 mi NW 17.3 mph 21.9 mph N/A   Scattered Clouds
4:15 AM 35.6 °F 24.5 °F 23.0 °F 60% 29.82 in 10.0 mi NW 20.7 mph 25.3 mph N/A   Mostly Cloudy
4:55 AM 35.6 °F 28.0 °F 23.0 °F 60% 29.84 in 10.0 mi NW 10.4 mph 16.1 mph N/A   Clear
5:15 AM 35.6 °F 26.6 °F 23.0 °F 60% 29.84 in 10.0 mi NW 13.8 mph - N/A   Mostly Cloudy
5:35 AM 35.6 °F 25.5 °F 23.0 °F 60% 29.84 in 10.0 mi WNW 17.3 mph 23.0 mph N/A   Overcast
5:55 AM 35.6 °F 26.2 °F 21.2 °F 56% 29.85 in 10.0 mi NW 15.0 mph 26.5 mph N/A   Mostly Cloudy
6:15 AM 35.6 °F 25.5 °F 21.2 °F 56% 29.85 in 10.0 mi WNW 17.3 mph 28.8 mph N/A   Clear
6:35 AM 33.8 °F 23.5 °F 21.2 °F 60% 29.86 in 10.0 mi WNW 16.1 mph - N/A   Partly Cloudy
6:55 AM 33.8 °F 24.3 °F 23.0 °F 65% 29.86 in 10.0 mi WNW 13.8 mph 26.5 mph N/A   Clear
7:15 AM 35.6 °F 26.6 °F 23.0 °F 60% 29.86 in 10.0 mi WNW 13.8 mph 21.9 mph N/A   Mostly Cloudy
7:35 AM 35.6 °F 25.5 °F 23.0 °F 60% 29.86 in 10.0 mi WNW 17.3 mph 26.5 mph N/A   Overcast
7:55 AM 35.6 °F 24.8 °F 23.0 °F 60% 29.86 in 10.0 mi NW 19.6 mph 27.6 mph N/A   Mostly Cloudy
8:15 AM 35.6 °F 25.5 °F 23.0 °F 60% 29.87 in 10.0 mi WNW 17.3 mph 24.2 mph N/A   Mostly Cloudy
8:35 AM 37.4 °F 28.2 °F 23.0 °F 56% 29.87 in 10.0 mi WNW 16.1 mph 25.3 mph N/A   Mostly Cloudy
8:55 AM 37.4 °F 28.2 °F 23.0 °F 56% 29.87 in 10.0 mi NW 16.1 mph 26.5 mph N/A   Scattered Clouds
9:15 AM 37.4 °F 27.8 °F 23.0 °F 56% 29.87 in 10.0 mi WNW 17.3 mph 31.1 mph N/A   Mostly Cloudy
9:35 AM 39.2 °F 29.8 °F 23.0 °F 52% 29.87 in 10.0 mi WNW 18.4 mph 28.8 mph N/A   Scattered Clouds
10:15 AM 39.2 °F 29.3 °F 23.0 °F 52% 29.87 in 10.0 mi NW 20.7 mph 35.7 mph N/A   Partly Cloudy
10:35 AM 39.2 °F 28.3 °F 21.2 °F 49% 29.88 in 10.0 mi NW 25.3 mph 34.5 mph N/A   Mostly Cloudy
10:55 AM 41.0 °F 30.7 °F 23.0 °F 49% 29.88 in 10.0 mi NW 25.3 mph 31.1 mph N/A   Mostly Cloudy
11:15 AM 39.2 °F 29.0 °F 21.2 °F 49% 29.86 in 10.0 mi WNW 21.9 mph 29.9 mph N/A   Mostly Cloudy
11:35 AM 39.2 °F 30.8 °F 21.2 °F 49% 29.86 in 10.0 mi WNW 15.0 mph 25.3 mph N/A   Mostly Cloudy
11:55 AM 39.2 °F 29.6 °F 21.2 °F 49% 29.85 in 10.0 mi WNW 19.6 mph 28.8 mph N/A   Mostly Cloudy
12:15 PM 39.2 °F 29.6 °F 21.2 °F 49% 29.84 in 10.0 mi WNW 19.6 mph 28.8 mph N/A   Overcast
12:35 PM 39.2 °F 28.3 °F 21.2 °F 49% 29.84 in 10.0 mi WNW 25.3 mph 31.1 mph N/A   Overcast
12:55 PM 39.2 °F 29.0 °F 21.2 °F 49% 29.84 in 10.0 mi NW 21.9 mph 26.5 mph N/A   Overcast
1:15 PM 39.2 °F 29.3 °F 21.2 °F 49% 29.84 in 10.0 mi WNW 20.7 mph 27.6 mph N/A   Mostly Cloudy
1:35 PM 39.2 °F 29.3 °F 21.2 °F 49% 29.84 in 10.0 mi WNW 20.7 mph 28.8 mph N/A   Mostly Cloudy
1:55 PM 39.2 °F 29.3 °F 21.2 °F 49% 29.84 in 10.0 mi WNW 20.7 mph 27.6 mph N/A   Mostly Cloudy
2:15 PM 39.2 °F 28.7 °F 21.2 °F 49% 29.83 in 10.0 mi WNW 23.0 mph 29.9 mph N/A   Mostly Cloudy
2:35 PM 39.2 °F 28.3 °F 21.2 °F 49% 29.83 in 10.0 mi WNW 25.3 mph 29.9 mph N/A   Scattered Clouds
2:55 PM 39.2 °F 28.5 °F 21.2 °F 49% 29.83 in 10.0 mi WNW 24.2 mph 35.7 mph N/A   Scattered Clouds
3:15 PM 39.2 °F 29.3 °F 23.0 °F 52% 29.84 in 10.0 mi WNW 20.7 mph 28.8 mph N/A   Mostly Cloudy
3:35 PM 39.2 °F 29.6 °F 21.2 °F 49% 29.84 in 10.0 mi WNW 19.6 mph 28.8 mph N/A   Mostly Cloudy
3:55 PM 37.4 °F 27.2 °F 21.2 °F 52% 29.85 in 10.0 mi NW 19.6 mph 28.8 mph N/A   Mostly Cloudy
4:15 PM 37.4 °F 26.9 °F 21.2 °F 52% 29.85 in 10.0 mi WNW 20.7 mph 27.6 mph N/A   Overcast
4:35 PM 37.4 °F 27.5 °F 21.2 °F 52% 29.86 in 10.0 mi NW 18.4 mph 25.3 mph N/A   Overcast
4:55 PM 37.4 °F 27.5 °F 21.2 °F 52% 29.87 in 10.0 mi WNW 18.4 mph 24.2 mph N/A   Partly Cloudy
5:15 PM 37.4 °F 28.9 °F 21.2 °F 52% 29.87 in 10.0 mi WNW 13.8 mph - N/A   Mostly Cloudy
5:35 PM 37.4 °F 28.2 °F 21.2 °F 52% 29.88 in 10.0 mi WNW 16.1 mph 23.0 mph N/A   Overcast
6:15 PM 35.6 °F 25.5 °F 23.0 °F 60% 29.89 in 10.0 mi WNW 17.3 mph 24.2 mph N/A   Overcast
6:35 PM 37.4 °F 27.8 °F 21.2 °F 52% 29.90 in 10.0 mi WNW 17.3 mph 23.0 mph N/A   Overcast
6:55 PM 35.6 °F 27.1 °F 21.2 °F 56% 29.90 in 10.0 mi WNW 12.7 mph 16.1 mph N/A   Overcast
7:15 PM 35.6 °F 26.2 °F 21.2 °F 56% 29.90 in 10.0 mi WNW 15.0 mph - N/A   Mostly Cloudy
7:35 PM 35.6 °F 25.2 °F 21.2 °F 56% 29.90 in 10.0 mi WNW 18.4 mph 24.2 mph N/A   Mostly Cloudy
7:55 PM 35.6 °F 27.1 °F 21.2 °F 56% 29.91 in 10.0 mi WNW 12.7 mph 20.7 mph N/A   Scattered Clouds
8:15 PM 35.6 °F 27.1 °F 21.2 °F 56% 29.91 in 10.0 mi WNW 12.7 mph - N/A   Mostly Cloudy
8:35 PM 35.6 °F 26.2 °F 21.2 °F 56% 29.92 in 10.0 mi West 15.0 mph - N/A   Overcast
8:55 PM 35.6 °F 27.5 °F 21.2 °F 56% 29.92 in 10.0 mi WNW 11.5 mph 19.6 mph N/A   Overcast
9:15 PM 35.6 °F 26.2 °F 21.2 °F 56% 29.92 in 10.0 mi WNW 15.0 mph 24.2 mph N/A   Overcast
9:35 PM 35.6 °F 27.1 °F 21.2 °F 56% 29.93 in 10.0 mi WNW 12.7 mph 20.7 mph N/A   Overcast
9:55 PM 35.6 °F 26.2 °F 21.2 °F 56% 29.93 in 10.0 mi WNW 15.0 mph 24.2 mph N/A   Mostly Cloudy
10:15 PM 35.6 °F 26.2 °F 21.2 °F 56% 29.94 in 10.0 mi WNW 15.0 mph 20.7 mph N/A   Overcast
10:35 PM 33.8 °F 23.9 °F 21.2 °F 60% 29.94 in 10.0 mi WNW 15.0 mph 24.2 mph N/A   Mostly Cloudy
11:15 PM 32.0 °F 23.0 °F 21.2 °F 64% 29.95 in 10.0 mi WNW 11.5 mph - N/A   Clear
11:35 PM 32.0 °F 22.5 °F 21.2 °F 64% 29.95 in 10.0 mi West 12.7 mph - N/A   Clear